Location: Dittelbrunn
(50.0738°N, 10.2196°E)
Time: 23:22:54
(UTC+00:00)

Cosmos 1674 - Pass Details

Date: 18 September 2020
Orbit: 494 x 518 km, 82.5° (Epoch: 30 October)

Event Time Altitude Azimuth Distance (km) Brightness Sun altitude
Rises 19:02:14 0° 353° (N) 2,655 6.7 -16.0°
Reaches altitude 10° 19:04:26 10° 358° (N) 1,763 5.7 -16.3°
Maximum altitude 19:08:14 54° 77° (ENE) 639 2.8 -16.8°
Enters shadow 19:09:26 37° 132° (SE) 823 3.2 -17.0°
